Showing default

EAGLEEYE, 60508

Orbit data source: Space-Track

EAGLEEYE, 60508 is a Polish payload satellite in SSO that was launched on Fri, 16 Aug 2024 UTC via an FALCON 9 launch vehicle from the Air Force Western Test Range (AFWTR). Payload-class satellites include a variety of spacecraft equipped with specific instruments for various scientific and technological missions. These include communications satellites like Starlink; space stations such as the ISS; scientific satellites like the Hubble; Earth observation satellites from companies like Planet Labs, Umbra, and HawkEye 360; GPS; miniature CubeSats for education and research; and military/defense satellites.

Loading next visibility...
Identifier
60508, 2024-149AS
Orbit
SSO
Country
Flag of PLPL / POL
Related business
Manufacturer
CREO
Mission
Operational Commercial Imaging
Bus & Motor
HYPERSAT, Unknown motor
Mass
55 kg wet, 55 kg dry
Launch date (UTC)
2024-08-16 (1 year ago)
Launch vehicle
FALCON 9
Launch site
Air Force Western Test Range (AFWTR)
Object type
Payload
Rocket body
Debris
Shape & HBR
Box + 2 Pan, 0.8 m
Radar Cross Section
0.714 m², Medium (>0.1 m² and < 1m²)

Expand to show TLE details & history
Last TLE update: 8 hours ago

TLE from 8 hours ago
0 EAGLEEYE
1 60508U 24149AS  26037.94189196  .00068072  00000-0  10911-2 0  9991
2 60508  97.3821 125.9637 0003098  25.4559 334.6846 15.52856974 82617
Epoch: 2026-02-06T22:36Z
TLE epoch observation values (Epoch: 2026-02-06T22:36:19.465Z)
Latitude
-0.00001°
Longitude
9.81006°
Altitude
409.624 km
Speed
7.666 km/s
True Right ascension
08h 23m 51s
True Declination
0° 00' 00"
Sunlit
Object was in full shadow at epoch
Visualization orbit readout
Latitude
Unknown
Longitude
Unknown
Altitude
Unknown
Speed
Unknown
Apparent Right ascension
Unknown
Apparent Declination
Unknown
Sunlit
N/A
Visualization observer readout
Local Sidereal Time
08:16:43
Azimuth
Unknown
Elevation
Unknown
Doppler factor
Unknown
Orbital elements
Apogee altitude
407.412 km
Perigee altitude
403.209 km
Semi-major axis
6,783.447 km
Eccentricity
0.00031
Inclination
97.3821°
RAAN
125.9637°
Arg. of periapsis
25.4559°
True anomaly
334.66941°
Mean anomaly
334.6846°
Eccentric anomaly
334.67701°
Mean motion
3.88479 °/min
Orbital period
92.67 mins
BSTAR
0.0010911
Loading maneuver chart data...
Computing Atmospheric mass density...
Loading historical data...
Loading historical data...
Loading historical data...
Loading historical data...
Loading historical data...
Loading historical data...
Loading historical data...

Documentation

Showing up to 5 results
|